M I D A S
Marine Information and Data Acquisition System
Tripno 1781 of the Zeeleeuw from 2009-09-21 06:46:06 to 2009-09-21 15:45:26
Back to CruiseResearch ActivitiesStationsMapUnderway DataData graphs

EquipmentUnitsComments
TimeDGPSUTC
LatitudeDGPSDM.mWGS84
LongitudeDGPSDM.mWGS84
SpeedMeteo Stationm/sRelative wind speed
DirectionMeteo StationdegRelative wind direction
TemperatureMeteo Stationdeg CelciusAir temperature
PressureMeteo StationPaAtmospheric pressure
HumidityMeteo Station%Relative humidity
Missing or incorrect values are displayed as -999
Metereological data collected by the RV Zeeleeuw from 2009-09-21 06:50:00 to 2009-09-21 15:55:05
                                                                                    Next 1000 lines
Time Latitude Longitude Speed Direction Temperature Pressure Humidity
2009-09-21 06:50:10 51°13.662 2°55.954 -999 24 14.6 102600 42
2009-09-21 06:50:15 51°13.662 2°55.951 -999 38 14.5 102590 42
2009-09-21 06:50:20 51°13.663 2°55.947 -999 41 14.5 102590 42
2009-09-21 06:50:26 51°13.664 2°55.941 -999 35 14.6 102590 42
2009-09-21 06:50:31 51°13.666 2°55.936 -999 37 14.6 102590 42
2009-09-21 06:50:37 51°13.667 2°55.93 -999 38 14.6 102600 42
2009-09-21 06:50:43 51°13.669 2°55.923 -999 40 14.6 102600 42
2009-09-21 06:50:48 51°13.671 2°55.917 1.6 38 14.6 102600 42
2009-09-21 06:50:54 51°13.673 2°55.909 1.1 44 14.6 102600 42
2009-09-21 06:50:59 51°13.675 2°55.902 0.2 36 14.6 102600 42
2009-09-21 06:51:04 51°13.677 2°55.894 0.1 54 14.6 102600 42
2009-09-21 06:51:09 51°13.679 2°55.887 -999 24 14.6 102600 40
2009-09-21 06:51:14 51°13.68 2°55.879 -999 54 14.6 102600 40
2009-09-21 06:51:19 51°13.682 2°55.871 -999 24 14.6 102590 42
2009-09-21 06:51:24 51°13.683 2°55.863 -999 54 14.6 102590 42
2009-09-21 06:51:29 51°13.685 2°55.856 -999 23 14.5 102600 42
2009-09-21 06:51:34 51°13.686 2°55.848 -999 43 14.5 102600 42
2009-09-21 06:51:39 51°13.688 2°55.84 -999 24 14.6 102600 42
2009-09-21 06:51:44 51°13.689 2°55.832 -999 55 14.6 102600 42
2009-09-21 06:51:49 51°13.691 2°55.824 -999 24 14.6 102600 42
2009-09-21 06:51:54 51°13.692 2°55.816 -999 55 14.6 102600 42
2009-09-21 06:51:59 51°13.693 2°55.809 -999 24 14.6 102600 41
2009-09-21 06:52:04 51°13.693 2°55.801 -999 55 14.6 102600 41
2009-09-21 06:52:09 51°13.693 2°55.794 -999 24 14.6 102600 42
2009-09-21 06:52:14 51°13.693 2°55.787 -999 54 14.6 102600 42
2009-09-21 06:52:19 51°13.694 2°55.781 -999 24 14.6 102600 42
2009-09-21 06:52:24 51°13.694 2°55.774 -999 55 14.6 102600 42
2009-09-21 06:52:29 51°13.694 2°55.768 -999 24 14.6 102600 42
2009-09-21 06:52:34 51°13.694 2°55.762 -999 54 14.6 102600 42
2009-09-21 06:52:39 51°13.694 2°55.757 -999 24 14.6 102600 42
2009-09-21 06:52:44 51°13.694 2°55.751 -999 55 14.6 102600 42
2009-09-21 06:52:49 51°13.694 2°55.747 -999 43 14.6 102600 42
2009-09-21 06:52:53 51°13.694 2°55.745 -999 55 14.6 102600 42
2009-09-21 06:52:58 51°13.694 2°55.742 -999 45 14.6 102600 42
2009-09-21 06:53:03 51°13.694 2°55.74 -999 34 14.6 102600 42
2009-09-21 06:53:08 51°13.694 2°55.739 -999 44 14.6 102600 42
2009-09-21 06:53:13 51°13.695 2°55.738 -999 30 14.6 102600 42
2009-09-21 06:53:18 51°13.695 2°55.738 -999 30 14.6 102600 42
2009-09-21 06:53:23 51°13.696 2°55.738 -999 31 14.6 102600 42
2009-09-21 06:53:28 51°13.697 2°55.739 -999 34 14.6 102600 42
2009-09-21 06:53:32 51°13.698 2°55.739 -999 34 14.6 102600 42
2009-09-21 06:53:37 51°13.7 2°55.74 -999 35 14.6 102600 42
2009-09-21 06:53:42 51°13.701 2°55.741 -999 39 14.6 102600 42
2009-09-21 06:53:47 51°13.704 2°55.742 -999 39 14.6 102600 42
2009-09-21 06:53:52 51°13.706 2°55.742 -999 39 14.6 102600 42
2009-09-21 06:53:56 51°13.707 2°55.743 -999 39 14.6 102600 42
2009-09-21 06:54:01 51°13.709 2°55.743 -999 55 14.6 102600 42
2009-09-21 06:54:06 51°13.709 2°55.743 -999 24 14.7 102600 42
2009-09-21 06:54:11 51°13.71 2°55.742 -999 55 14.7 102600 42
2009-09-21 06:54:16 51°13.709 2°55.743 -999 24 14.7 102600 42
2009-09-21 06:54:20 51°13.709 2°55.742 -999 55 14.7 102600 42
2009-09-21 06:54:25 51°13.708 2°55.742 -999 24 14.7 102600 42
2009-09-21 06:54:30 51°13.706 2°55.742 -999 55 14.7 102600 42
2009-09-21 06:54:35 51°13.705 2°55.742 -999 24 14.7 102600 41
2009-09-21 06:54:40 51°13.705 2°55.741 -999 55 14.7 102600 41
2009-09-21 06:54:45 51°13.704 2°55.741 -999 24 14.7 102600 42
2009-09-21 06:54:50 51°13.704 2°55.74 -999 55 14.7 102600 42
2009-09-21 06:54:55 51°13.705 2°55.74 -999 269 14.7 102600 42
2009-09-21 06:55:00 51°13.706 2°55.739 -999 306 14.7 102600 42
2009-09-21 06:55:05 51°13.707 2°55.737 -999 265 14.7 102600 42
2009-09-21 06:55:11 51°13.71 2°55.735 -999 305 14.7 102600 42
2009-09-21 06:55:16 51°13.713 2°55.732 -999 253 14.7 102600 42
2009-09-21 06:55:20 51°13.716 2°55.73 -999 305 14.7 102600 42
2009-09-21 06:55:25 51°13.719 2°55.726 -999 24 14.7 102600 42
2009-09-21 06:55:30 51°13.723 2°55.722 -999 305 14.7 102600 42
2009-09-21 06:55:35 51°13.727 2°55.718 -999 318 14.7 102600 42
2009-09-21 06:55:40 51°13.732 2°55.714 -999 306 14.7 102600 42
2009-09-21 06:55:45 51°13.736 2°55.71 -999 317 14.7 102600 42
2009-09-21 06:55:51 51°13.742 2°55.704 -999 305 14.7 102600 42
2009-09-21 06:55:55 51°13.746 2°55.7 -999 24 14.8 102600 42
2009-09-21 06:56:00 51°13.752 2°55.695 -999 306 14.8 102600 42
2009-09-21 06:56:05 51°13.758 2°55.69 -999 24 14.8 102600 42
2009-09-21 06:56:11 51°13.764 2°55.683 -999 305 14.8 102600 42
2009-09-21 06:56:16 51°13.77 2°55.678 -999 24 14.8 102600 42
2009-09-21 06:56:21 51°13.776 2°55.673 -999 305 14.8 102600 42
2009-09-21 06:56:25 51°13.781 2°55.669 -999 24 14.8 102600 42
2009-09-21 06:56:31 51°13.788 2°55.662 -999 305 14.8 102600 42
2009-09-21 06:56:36 51°13.794 2°55.657 -999 316 14.8 102600 42
2009-09-21 06:56:41 51°13.801 2°55.652 -999 326 14.8 102600 42
2009-09-21 06:56:45 51°13.806 2°55.649 -999 326 14.8 102600 42
2009-09-21 06:56:51 51°13.813 2°55.644 -999 305 14.8 102600 42
2009-09-21 06:56:55 51°13.818 2°55.64 -999 23 14.8 102600 42
2009-09-21 06:57:01 51°13.825 2°55.636 -999 306 14.8 102600 42
2009-09-21 06:57:05 51°13.829 2°55.634 -999 24 14.8 102600 42
2009-09-21 06:57:11 51°13.836 2°55.631 -999 306 14.8 102600 42
2009-09-21 06:57:15 51°13.84 2°55.629 -999 24 14.8 102600 41
2009-09-21 06:57:21 51°13.847 2°55.627 -999 305 14.8 102600 41
2009-09-21 06:57:25 51°13.851 2°55.626 -999 24 14.8 102600 42
2009-09-21 06:57:31 51°13.856 2°55.625 -999 305 14.8 102600 42
2009-09-21 06:57:36 51°13.861 2°55.624 -999 24 14.8 102600 42
2009-09-21 06:57:41 51°13.866 2°55.624 -999 305 14.8 102600 42
2009-09-21 06:57:45 51°13.869 2°55.623 -999 24 14.8 102600 42
2009-09-21 06:57:51 51°13.875 2°55.623 -999 306 14.8 102600 42
2009-09-21 06:57:56 51°13.878 2°55.624 -999 24 14.8 102600 42
2009-09-21 06:58:01 51°13.883 2°55.624 -999 305 14.8 102600 42
2009-09-21 06:58:05 51°13.886 2°55.625 -999 24 14.8 102600 42
2009-09-21 06:58:11 51°13.89 2°55.626 -999 305 14.8 102600 42
2009-09-21 06:58:15 51°13.893 2°55.626 -999 24 14.8 102600 42
2009-09-21 06:58:21 51°13.897 2°55.628 -999 305 14.8 102600 42
2009-09-21 06:58:25 51°13.9 2°55.628 -999 24 14.8 102600 42
2009-09-21 06:58:31 51°13.904 2°55.63 -999 305 14.8 102600 42
2009-09-21 06:58:35 51°13.907 2°55.63 -999 35 14.8 102590 42
2009-09-21 06:58:41 51°13.911 2°55.632 -999 26 14.8 102590 42
2009-09-21 06:58:45 51°13.913 2°55.632 -999 30 14.9 102600 42
2009-09-21 06:58:50 51°13.917 2°55.633 -999 33 14.9 102600 42
2009-09-21 06:58:56 51°13.92 2°55.634 -999 37 14.9 102590 42
2009-09-21 06:59:01 51°13.923 2°55.635 -999 36 14.9 102590 42
2009-09-21 06:59:05 51°13.926 2°55.635 -999 34 14.9 102600 42
2009-09-21 06:59:10 51°13.929 2°55.635 -999 41 14.9 102600 42
2009-09-21 06:59:15 51°13.931 2°55.636 -999 39 14.9 102600 42
2009-09-21 06:59:21 51°13.935 2°55.636 -999 38 14.9 102600 42
2009-09-21 06:59:25 51°13.937 2°55.636 -999 37 14.9 102600 42
2009-09-21 06:59:31 51°13.94 2°55.635 -999 55 14.9 102600 42
2009-09-21 06:59:35 51°13.942 2°55.635 -999 24 14.9 102590 42
2009-09-21 06:59:41 51°13.945 2°55.635 -999 55 14.9 102590 42
2009-09-21 06:59:45 51°13.947 2°55.635 -999 24 14.9 102600 42
2009-09-21 06:59:51 51°13.949 2°55.634 -999 55 14.9 102600 42
2009-09-21 06:59:55 51°13.951 2°55.634 -999 24 14.9 102590 41
2009-09-21 07:00:00 51°13.952 2°55.633 -999 55 14.9 102590 41
2009-09-21 07:00:05 51°13.954 2°55.633 -999 24 14.9 102600 42
2009-09-21 07:00:11 51°13.955 2°55.633 -999 55 14.9 102600 42
2009-09-21 07:00:15 51°13.956 2°55.633 -999 24 14.9 102590 42
2009-09-21 07:00:20 51°13.957 2°55.633 -999 55 14.9 102590 42
2009-09-21 07:00:25 51°13.957 2°55.633 -999 24 14.9 102600 42
2009-09-21 07:00:31 51°13.958 2°55.633 -999 55 14.9 102600 42
2009-09-21 07:00:36 51°13.957 2°55.633 -999 24 14.9 102600 42
2009-09-21 07:00:41 51°13.957 2°55.633 -999 55 14.9 102600 42
2009-09-21 07:00:45 51°13.956 2°55.634 -999 29 14.9 102600 42
2009-09-21 07:00:51 51°13.955 2°55.634 -999 55 14.9 102600 42
2009-09-21 07:00:56 51°13.954 2°55.635 -999 24 14.9 102600 42
2009-09-21 07:01:01 51°13.954 2°55.635 -999 55 14.9 102600 42
2009-09-21 07:01:06 51°13.953 2°55.635 -999 24 15 102590 42
2009-09-21 07:01:12 51°13.953 2°55.635 -999 55 15 102590 42
2009-09-21 07:01:16 51°13.953 2°55.635 -999 24 15 102600 42
2009-09-21 07:01:21 51°13.952 2°55.635 -999 55 15 102600 42
2009-09-21 07:01:27 51°13.952 2°55.635 -999 24 15 102600 42
2009-09-21 07:01:32 51°13.951 2°55.636 -999 55 15 102600 42
2009-09-21 07:01:36 51°13.951 2°55.636 -999 24 15 102600 42
2009-09-21 07:01:41 51°13.951 2°55.636 -999 55 15 102600 42
2009-09-21 07:01:46 51°13.95 2°55.636 -999 24 15 102600 43
2009-09-21 07:01:51 51°13.95 2°55.636 -999 55 15 102600 43
2009-09-21 07:01:56 51°13.95 2°55.636 -999 24 15 102600 42
2009-09-21 07:02:01 51°13.95 2°55.636 -999 55 15 102600 42
2009-09-21 07:02:05 51°13.95 2°55.636 -999 24 15 102600 42
2009-09-21 07:02:11 51°13.949 2°55.636 -999 55 15 102600 42
2009-09-21 07:02:16 51°13.949 2°55.636 -999 24 15 102600 42
2009-09-21 07:02:21 51°13.949 2°55.636 -999 54 15 102600 42
2009-09-21 07:02:25 51°13.949 2°55.637 -999 24 15 102590 42
2009-09-21 07:02:31 51°13.948 2°55.637 -999 54 15 102590 42
2009-09-21 07:02:35 51°13.948 2°55.637 -999 24 15 102590 41
2009-09-21 07:02:41 51°13.948 2°55.637 -999 55 15 102590 41
2009-09-21 07:02:45 51°13.948 2°55.637 -999 24 15.1 102600 42
2009-09-21 07:02:51 51°13.948 2°55.637 -999 55 15.1 102600 42
2009-09-21 07:02:56 51°13.948 2°55.637 -999 24 15 102590 42
2009-09-21 07:03:01 51°13.949 2°55.637 -999 55 15 102590 42
2009-09-21 07:03:05 51°13.949 2°55.636 -999 24 15 102590 42
2009-09-21 07:03:11 51°13.951 2°55.635 -999 55 15 102590 42
2009-09-21 07:03:16 51°13.952 2°55.633 -999 24 15 102590 42
2009-09-21 07:03:21 51°13.954 2°55.631 -999 55 15 102590 42
2009-09-21 07:03:25 51°13.956 2°55.629 -999 24 15 102590 42
2009-09-21 07:03:30 51°13.959 2°55.626 -999 55 15 102590 42
2009-09-21 07:03:36 51°13.963 2°55.622 -999 24 15.1 102600 42
2009-09-21 07:03:41 51°13.967 2°55.618 -999 308 15.1 102600 42
2009-09-21 07:03:45 51°13.971 2°55.614 -999 265 15.1 102590 42
2009-09-21 07:03:50 51°13.975 2°55.61 -999 305 15.1 102590 42
2009-09-21 07:03:56 51°13.982 2°55.603 -999 24 15.1 102590 42
2009-09-21 07:04:01 51°13.988 2°55.597 -999 305 15.1 102590 42
2009-09-21 07:04:05 51°13.993 2°55.592 -999 24 15.1 102590 42
2009-09-21 07:04:11 51°14.001 2°55.583 -999 305 15.1 102590 42
2009-09-21 07:04:16 51°14.008 2°55.576 -999 316 15.1 102590 42
2009-09-21 07:04:21 51°14.016 2°55.568 -999 305 15.1 102590 42
2009-09-21 07:04:25 51°14.022 2°55.56 -999 328 15.1 102590 42
2009-09-21 07:04:31 51°14.032 2°55.548 -999 326 15.1 102590 42
2009-09-21 07:04:36 51°14.041 2°55.537 -999 326 15.1 102590 42
2009-09-21 07:04:41 51°14.05 2°55.527 -999 305 15.1 102590 42
2009-09-21 07:04:45 51°14.057 2°55.518 -999 327 15.1 102590 42
2009-09-21 07:04:51 51°14.069 2°55.504 -999 325 15.1 102590 42
2009-09-21 07:04:56 51°14.078 2°55.492 -999 325 15.1 102590 42
2009-09-21 07:05:01 51°14.088 2°55.48 -999 326 15.1 102590 42
2009-09-21 07:05:05 51°14.096 2°55.471 -999 327 15.1 102590 42
2009-09-21 07:05:11 51°14.109 2°55.456 -999 328 15.1 102590 42
2009-09-21 07:05:16 51°14.119 2°55.443 -999 329 15.1 102590 41
2009-09-21 07:05:21 51°14.13 2°55.431 -999 327 15.1 102590 41
2009-09-21 07:05:25 51°14.138 2°55.421 -999 323 15.1 102590 42
2009-09-21 07:05:31 51°14.151 2°55.405 -999 326 15.1 102590 42
2009-09-21 07:05:36 51°14.162 2°55.391 0.7 327 15.1 102590 42
2009-09-21 07:05:41 51°14.172 2°55.377 1.6 324 15.1 102590 42
2009-09-21 07:05:45 51°14.181 2°55.366 0.8 325 15.1 102590 42
2009-09-21 07:05:51 51°14.193 2°55.349 0.6 303 15.1 102590 42
2009-09-21 07:05:55 51°14.202 2°55.338 3.1 322 15.2 102590 45
2009-09-21 07:06:01 51°14.214 2°55.321 2.6 327 15.2 102590 45
2009-09-21 07:06:05 51°14.222 2°55.308 2.8 328 15.2 102590 43
2009-09-21 07:06:11 51°14.234 2°55.29 1 326 15.2 102590 43
2009-09-21 07:06:15 51°14.241 2°55.277 1.5 328 15.2 102590 44
2009-09-21 07:06:21 51°14.253 2°55.258 2.8 308 15.2 102590 44
2009-09-21 07:06:25 51°14.262 2°55.246 3.1 319 15.2 102590 44
2009-09-21 07:06:31 51°14.273 2°55.226 3.2 305 15.2 102590 44
2009-09-21 07:06:36 51°14.283 2°55.209 3.1 326 15.2 102590 40
2009-09-21 07:06:41 51°14.292 2°55.191 3.5 323 15.2 102590 40
2009-09-21 07:06:45 51°14.299 2°55.177 3.2 328 15.2 102590 44
2009-09-21 07:06:51 51°14.31 2°55.155 3.2 307 15.2 102590 44
2009-09-21 07:06:56 51°14.32 2°55.137 3 324 15.2 102590 40
2009-09-21 07:07:01 51°14.329 2°55.118 3.5 328 15.2 102590 40
2009-09-21 07:07:05 51°14.337 2°55.103 3.4 326 15.2 102590 44
2009-09-21 07:07:11 51°14.347 2°55.079 4.1 328 15.2 102590 44
2009-09-21 07:07:16 51°14.356 2°55.059 3.6 322 15.2 102590 40
2009-09-21 07:07:21 51°14.365 2°55.038 4 302 15.2 102590 40
2009-09-21 07:07:25 51°14.372 2°55.022 4.6 325 15.2 102590 44
2009-09-21 07:07:30 51°14.382 2°55.004 4.3 325 15.2 102590 44
2009-09-21 07:07:36 51°14.394 2°54.982 4.2 324 15.2 102590 44
2009-09-21 07:07:41 51°14.405 2°54.965 4.5 326 15.2 102590 44
2009-09-21 07:07:45 51°14.415 2°54.952 3.8 327 15.2 102590 41
2009-09-21 07:07:50 51°14.427 2°54.936 3.9 328 15.2 102590 41
2009-09-21 07:07:56 51°14.442 2°54.918 3.8 329 15.2 102590 43
2009-09-21 07:08:01 51°14.455 2°54.904 3.8 303 15.2 102590 43
2009-09-21 07:08:05 51°14.465 2°54.893 3.5 325 15.2 102590 41
2009-09-21 07:08:10 51°14.478 2°54.878 3.6 301 15.2 102590 41
2009-09-21 07:08:15 51°14.491 2°54.862 3.6 325 15.2 102590 40
2009-09-21 07:08:21 51°14.506 2°54.844 3.3 306 15.2 102590 40
2009-09-21 07:08:25 51°14.516 2°54.832 3.5 328 15.2 102590 40
2009-09-21 07:08:30 51°14.529 2°54.818 3.5 302 15.2 102590 40
2009-09-21 07:08:36 51°14.545 2°54.801 3.3 326 15.2 102580 42
2009-09-21 07:08:41 51°14.558 2°54.787 3.7 302 15.2 102580 42
2009-09-21 07:08:45 51°14.569 2°54.775 3.9 324 15.2 102590 41
2009-09-21 07:08:51 51°14.584 2°54.758 3.8 324 15.2 102590 41
2009-09-21 07:08:55 51°14.595 2°54.746 3.4 325 15.3 102590 40
2009-09-21 07:09:01 51°14.611 2°54.729 3.6 307 15.3 102590 40
2009-09-21 07:09:05 51°14.621 2°54.717 3.7 322 15.3 102590 40
2009-09-21 07:09:11 51°14.637 2°54.7 3.4 303 15.3 102590 40
2009-09-21 07:09:15 51°14.647 2°54.689 3.6 321 15.3 102580 40
2009-09-21 07:09:20 51°14.66 2°54.674 3.6 302 15.3 102580 40
2009-09-21 07:09:25 51°14.673 2°54.659 3.5 323 15.3 102590 40
2009-09-21 07:09:31 51°14.688 2°54.641 3.7 302 15.3 102590 40
2009-09-21 07:09:36 51°14.701 2°54.626 3.1 321 15.3 102580 40
2009-09-21 07:09:41 51°14.714 2°54.612 3.3 326 15.3 102580 40
2009-09-21 07:09:45 51°14.724 2°54.601 3.6 325 15.3 102580 43
2009-09-21 07:09:50 51°14.737 2°54.587 3.1 304 15.3 102580 43
2009-09-21 07:09:56 51°14.753 2°54.571 4 323 15.4 102580 40
2009-09-21 07:10:01 51°14.766 2°54.558 3.3 324 15.4 102580 40
2009-09-21 07:10:05 51°14.777 2°54.547 3.5 325 15.4 102580 44
2009-09-21 07:10:10 51°14.79 2°54.534 3.3 302 15.4 102580 44
2009-09-21 07:10:16 51°14.807 2°54.519 3.4 321 15.4 102580 44
2009-09-21 07:10:21 51°14.82 2°54.507 3.6 303 15.4 102580 44
2009-09-21 07:10:25 51°14.83 2°54.496 3.7 322 15.4 102580 40
2009-09-21 07:10:30 51°14.844 2°54.483 3.3 302 15.4 102580 40
2009-09-21 07:10:35 51°14.857 2°54.47 3.7 324 15.4 102590 41
2009-09-21 07:10:41 51°14.873 2°54.455 3.1 301 15.4 102590 41
2009-09-21 07:10:45 51°14.884 2°54.445 3.4 324 15.4 102580 42
2009-09-21 07:10:50 51°14.897 2°54.432 3.5 324 15.4 102580 42
2009-09-21 07:10:56 51°14.913 2°54.417 3.1 323 15.4 102580 41
2009-09-21 07:11:01 51°14.927 2°54.404 3.4 323 15.4 102580 41
2009-09-21 07:11:05 51°14.937 2°54.395 3.2 322 15.5 102590 40
2009-09-21 07:11:11 51°14.953 2°54.38 3 303 15.5 102590 40
2009-09-21 07:11:16 51°14.966 2°54.368 3.1 325 15.5 102590 40
2009-09-21 07:11:21 51°14.979 2°54.356 3 327 15.5 102590 40
2009-09-21 07:11:25 51°14.99 2°54.346 2.9 324 15.5 102590 42
2009-09-21 07:11:31 51°15.006 2°54.332 2.9 303 15.5 102590 42
2009-09-21 07:11:36 51°15.019 2°54.319 3.3 325 15.5 102590 44
2009-09-21 07:11:41 51°15.032 2°54.307 3 303 15.5 102590 44
2009-09-21 07:11:45 51°15.042 2°54.297 3.3 326 15.5 102590 42
2009-09-21 07:11:51 51°15.058 2°54.283 3 303 15.5 102590 42
2009-09-21 07:11:56 51°15.072 2°54.271 3.7 324 15.5 102590 43
2009-09-21 07:12:01 51°15.086 2°54.259 3 308 15.5 102590 43
2009-09-21 07:12:05 51°15.096 2°54.249 3.5 321 15.5 102590 39
2009-09-21 07:12:10 51°15.11 2°54.236 3.4 303 15.5 102590 39
2009-09-21 07:12:16 51°15.126 2°54.222 2.9 321 15.5 102590 41
2009-09-21 07:12:21 51°15.139 2°54.21 3.3 302 15.5 102590 41
2009-09-21 07:12:25 51°15.15 2°54.199 3.2 322 15.5 102580 41
2009-09-21 07:12:31 51°15.167 2°54.184 3.6 308 15.5 102580 41
2009-09-21 07:12:36 51°15.18 2°54.171 3.8 321 15.6 102590 40
2009-09-21 07:12:41 51°15.194 2°54.159 3.6 304 15.6 102590 40
2009-09-21 07:12:45 51°15.205 2°54.149 3.5 323 15.6 102580 44
2009-09-21 07:12:51 51°15.221 2°54.133 3.1 303 15.6 102580 44
2009-09-21 07:12:56 51°15.234 2°54.12 3.5 321 15.6 102580 43
2009-09-21 07:13:01 51°15.248 2°54.107 3.5 307 15.6 102580 43
2009-09-21 07:13:05 51°15.258 2°54.097 3.4 321 15.6 102580 41
2009-09-21 07:13:11 51°15.275 2°54.081 3.1 308 15.6 102580 41
2009-09-21 07:13:15 51°15.285 2°54.071 3.4 320 15.6 102580 42
2009-09-21 07:13:20 51°15.299 2°54.058 3.4 301 15.6 102580 42
2009-09-21 07:13:25 51°15.312 2°54.045 3.3 317 15.6 102590 41
2009-09-21 07:13:31 51°15.328 2°54.03 3.8 301 15.6 102590 41
2009-09-21 07:13:36 51°15.342 2°54.017 3.7 317 15.6 102580 40
2009-09-21 07:13:41 51°15.355 2°54.004 3.2 308 15.6 102580 40
2009-09-21 07:13:45 51°15.366 2°53.994 3.6 320 15.7 102580 40
2009-09-21 07:13:51 51°15.382 2°53.979 3.8 300 15.7 102580 40
2009-09-21 07:13:56 51°15.396 2°53.967 3.1 319 15.7 102590 43
2009-09-21 07:14:01 51°15.41 2°53.954 2.3 309 15.7 102590 43
2009-09-21 07:14:05 51°15.42 2°53.944 3.7 319 15.7 102580 40
2009-09-21 07:14:11 51°15.436 2°53.928 3.9 308 15.7 102580 40
2009-09-21 07:14:16 51°15.45 2°53.916 3.4 318 15.7 102580 43
2009-09-21 07:14:21 51°15.463 2°53.903 4.5 306 15.7 102580 43
2009-09-21 07:14:25 51°15.474 2°53.893 4.2 315 15.7 102580 43
2009-09-21 07:14:31 51°15.49 2°53.877 4.2 307 15.7 102580 43
2009-09-21 07:14:36 51°15.504 2°53.864 4 318 15.7 102580 40
2009-09-21 07:14:41 51°15.517 2°53.851 4.1 303 15.7 102580 40
2009-09-21 07:14:45 51°15.528 2°53.84 3.9 318 15.8 102580 44
2009-09-21 07:14:51 51°15.544 2°53.825 3.4 307 15.8 102580 44
2009-09-21 07:14:56 51°15.558 2°53.812 3.2 317 15.8 102580 40
2009-09-21 07:15:01 51°15.572 2°53.799 3.2 307 15.8 102580 40
2009-09-21 07:15:05 51°15.582 2°53.789 3.7 317 15.7 102590 43
2009-09-21 07:15:11 51°15.599 2°53.773 3.7 307 15.7 102590 43
2009-09-21 07:15:16 51°15.612 2°53.76 3.6 317 15.7 102590 40
2009-09-21 07:15:21 51°15.626 2°53.747 3.6 309 15.7 102590 40
2009-09-21 07:15:25 51°15.637 2°53.737 3.8 317 15.7 102590 41
2009-09-21 07:15:31 51°15.654 2°53.721 3.8 307 15.7 102590 41
2009-09-21 07:15:36 51°15.667 2°53.708 4.2 320 15.7 102590 40
2009-09-21 07:15:41 51°15.681 2°53.695 3.8 301 15.7 102590 40
2009-09-21 07:15:45 51°15.692 2°53.685 4.3 318 15.7 102590 43
2009-09-21 07:15:50 51°15.706 2°53.672 4 303 15.7 102590 43
2009-09-21 07:15:56 51°15.722 2°53.657 3.7 318 15.7 102590 43
2009-09-21 07:16:01 51°15.736 2°53.643 4 306 15.7 102590 43
2009-09-21 07:16:05 51°15.747 2°53.633 4 317 15.8 102590 40
2009-09-21 07:16:11 51°15.763 2°53.618 3.4 308 15.8 102590 40
2009-09-21 07:16:16 51°15.777 2°53.604 3.7 318 15.8 102590 40
2009-09-21 07:16:21 51°15.791 2°53.591 3.6 303 15.8 102590 40
2009-09-21 07:16:25 51°15.802 2°53.581 4 319 15.8 102590 43
2009-09-21 07:16:31 51°15.818 2°53.565 4 307 15.8 102590 43
2009-09-21 07:16:36 51°15.832 2°53.552 3.6 318 15.8 102590 40
2009-09-21 07:16:41 51°15.846 2°53.54 3.8 309 15.8 102590 40
2009-09-21 07:16:45 51°15.857 2°53.529 3.6 320 15.8 102590 43
2009-09-21 07:16:51 51°15.874 2°53.514 2.4 308 15.8 102590 43
2009-09-21 07:16:56 51°15.888 2°53.501 3.7 315 15.8 102590 42
2009-09-21 07:17:01 51°15.902 2°53.488 4 303 15.8 102590 42
2009-09-21 07:17:05 51°15.912 2°53.478 3.9 318 15.8 102590 40
2009-09-21 07:17:11 51°15.929 2°53.464 3.8 307 15.8 102590 40
2009-09-21 07:17:16 51°15.943 2°53.451 3.9 319 15.7 102590 44
2009-09-21 07:17:21 51°15.957 2°53.438 3.2 302 15.7 102590 44
2009-09-21 07:17:25 51°15.968 2°53.427 3.5 318 15.7 102590 41
2009-09-21 07:17:31 51°15.985 2°53.412 3.6 303 15.7 102590 41
2009-09-21 07:17:35 51°15.996 2°53.402 3.5 317 15.7 102590 40
2009-09-21 07:17:41 51°16.012 2°53.386 3.7 304 15.7 102590 40
2009-09-21 07:17:45 51°16.023 2°53.376 3.4 317 15.7 102590 40
2009-09-21 07:17:51 51°16.04 2°53.36 3.2 307 15.7 102590 40
2009-09-21 07:17:55 51°16.051 2°53.35 3 317 15.7 102590 41
2009-09-21 07:18:00 51°16.065 2°53.338 3.6 307 15.7 102590 41
2009-09-21 07:18:05 51°16.079 2°53.325 3.6 317 15.7 102590 44
2009-09-21 07:18:11 51°16.096 2°53.311 3.4 307 15.7 102590 44
2009-09-21 07:18:16 51°16.11 2°53.298 3.8 320 15.7 102590 44
2009-09-21 07:18:21 51°16.124 2°53.285 3.2 305 15.7 102590 44
2009-09-21 07:18:25 51°16.135 2°53.275 3.4 316 15.7 102590 44
2009-09-21 07:18:31 51°16.151 2°53.259 3.6 302 15.7 102590 44
2009-09-21 07:18:36 51°16.165 2°53.246 3.6 316 15.7 102590 43
2009-09-21 07:18:41 51°16.179 2°53.233 3.5 302 15.7 102590 43
2009-09-21 07:18:45 51°16.19 2°53.222 3.1 319 15.7 102590 44
2009-09-21 07:18:51 51°16.206 2°53.206 3.3 303 15.7 102590 44
2009-09-21 07:18:56 51°16.22 2°53.193 3.5 318 15.7 102590 43
2009-09-21 07:19:01 51°16.233 2°53.18 3.5 310 15.7 102590 43
2009-09-21 07:19:05 51°16.245 2°53.17 3.8 317 15.7 102590 44
2009-09-21 07:19:11 51°16.261 2°53.156 3.4 303 15.7 102590 44
2009-09-21 07:19:16 51°16.275 2°53.143 3.3 318 15.7 102590 40
2009-09-21 07:19:21 51°16.289 2°53.13 3.1 308 15.7 102590 40
2009-09-21 07:19:25 51°16.3 2°53.12 3.2 319 15.7 102590 44
2009-09-21 07:19:31 51°16.316 2°53.105 3.1 310 15.7 102590 44
2009-09-21 07:19:36 51°16.33 2°53.092 2.9 321 15.7 102590 40
2009-09-21 07:19:41 51°16.344 2°53.08 3.8 301 15.7 102590 40
2009-09-21 07:19:45 51°16.355 2°53.07 3.7 320 15.7 102590 43
2009-09-21 07:19:51 51°16.371 2°53.054 3.3 310 15.7 102590 43
2009-09-21 07:19:56 51°16.385 2°53.041 3 320 15.7 102590 43
2009-09-21 07:20:01 51°16.399 2°53.029 3.4 305 15.7 102590 43
2009-09-21 07:20:05 51°16.41 2°53.018 3.1 321 15.7 102590 44
2009-09-21 07:20:11 51°16.426 2°53.003 3.4 307 15.7 102590 44
2009-09-21 07:20:16 51°16.44 2°52.99 3.4 317 15.7 102590 44
2009-09-21 07:20:21 51°16.453 2°52.978 3.2 309 15.7 102590 44
2009-09-21 07:20:25 51°16.464 2°52.967 3.3 318 15.7 102590 40
2009-09-21 07:20:31 51°16.481 2°52.952 3 321 15.7 102590 40
2009-09-21 07:20:36 51°16.494 2°52.94 2.9 320 15.7 102590 40
2009-09-21 07:20:41 51°16.508 2°52.928 3.1 304 15.7 102590 40
2009-09-21 07:20:45 51°16.519 2°52.918 3.3 321 15.7 102590 40
2009-09-21 07:20:51 51°16.536 2°52.903 2.9 301 15.7 102590 40
2009-09-21 07:20:56 51°16.55 2°52.891 3 319 15.7 102590 41
2009-09-21 07:21:01 51°16.564 2°52.879 3.3 303 15.7 102590 41
2009-09-21 07:21:05 51°16.575 2°52.87 3 317 15.7 102590 43
2009-09-21 07:21:11 51°16.592 2°52.856 2.9 308 15.7 102590 43
2009-09-21 07:21:16 51°16.606 2°52.844 3.1 318 15.7 102590 43
2009-09-21 07:21:21 51°16.62 2°52.832 3.2 305 15.7 102590 43
2009-09-21 07:21:25 51°16.631 2°52.823 3.1 322 15.7 102590 44
2009-09-21 07:21:30 51°16.645 2°52.811 3.3 305 15.7 102590 44
2009-09-21 07:21:36 51°16.661 2°52.797 3 317 15.7 102590 44
2009-09-21 07:21:41 51°16.676 2°52.785 2.8 310 15.7 102590 44
2009-09-21 07:21:45 51°16.687 2°52.776 3.1 317 15.7 102590 41
2009-09-21 07:21:51 51°16.704 2°52.763 2.8 303 15.7 102590 41
2009-09-21 07:21:55 51°16.715 2°52.755 2.3 318 15.8 102590 40
2009-09-21 07:22:01 51°16.732 2°52.742 2.7 307 15.8 102590 40
2009-09-21 07:22:05 51°16.743 2°52.734 2.6 319 15.8 102590 41
2009-09-21 07:22:10 51°16.757 2°52.723 3.3 304 15.8 102590 41
2009-09-21 07:22:16 51°16.774 2°52.71 2.7 321 15.8 102590 41
2009-09-21 07:22:21 51°16.788 2°52.7 2.8 302 15.8 102590 41
2009-09-21 07:22:25 51°16.799 2°52.691 2.8 318 15.8 102590 40
2009-09-21 07:22:31 51°16.815 2°52.678 2.6 309 15.8 102590 40
2009-09-21 07:22:36 51°16.829 2°52.667 3 319 15.8 102590 40
2009-09-21 07:22:41 51°16.843 2°52.657 2.6 307 15.8 102590 40
2009-09-21 07:22:45 51°16.854 2°52.649 2.6 321 15.8 102590 44
2009-09-21 07:22:51 51°16.871 2°52.638 2.3 307 15.8 102590 44
2009-09-21 07:22:56 51°16.885 2°52.629 2.7 324 15.8 102600 41
2009-09-21 07:23:01 51°16.899 2°52.619 2.9 324 15.8 102600 41
2009-09-21 07:23:05 51°16.91 2°52.612 2.9 325 15.8 102590 40
2009-09-21 07:23:11 51°16.927 2°52.601 2.6 303 15.8 102590 40
2009-09-21 07:23:16 51°16.941 2°52.593 2.5 324 15.8 102600 40
2009-09-21 07:23:21 51°16.955 2°52.584 2.7 324 15.8 102600 40
2009-09-21 07:23:25 51°16.967 2°52.577 2.5 327 15.8 102600 40
2009-09-21 07:23:30 51°16.981 2°52.568 2.5 324 15.8 102600 40
2009-09-21 07:23:36 51°16.998 2°52.557 2.6 324 15.8 102600 40
2009-09-21 07:23:41 51°17.012 2°52.548 2.4 305 15.8 102600 40
2009-09-21 07:23:45 51°17.023 2°52.541 2.6 319 15.8 102590 44
2009-09-21 07:23:50 51°17.037 2°52.532 2.4 306 15.8 102590 44
2009-09-21 07:23:56 51°17.054 2°52.522 2.4 320 15.8 102600 41
2009-09-21 07:24:01 51°17.069 2°52.513 2.4 301 15.8 102600 41
2009-09-21 07:24:05 51°17.08 2°52.506 2.7 319 15.8 102600 40
2009-09-21 07:24:10 51°17.094 2°52.497 2.8 309 15.8 102600 40
2009-09-21 07:24:16 51°17.111 2°52.487 2.4 321 15.8 102600 43
2009-09-21 07:24:21 51°17.126 2°52.478 2.2 301 15.8 102600 43
2009-09-21 07:24:25 51°17.137 2°52.471 2.5 321 15.8 102600 44
2009-09-21 07:24:30 51°17.151 2°52.462 2.3 301 15.8 102600 44
2009-09-21 07:24:36 51°17.168 2°52.451 0.2 323 15.8 102600 40
2009-09-21 07:24:41 51°17.182 2°52.442 0.1 300 15.8 102600 40
2009-09-21 07:24:45 51°17.194 2°52.435 0.1 322 15.8 102600 44
2009-09-21 07:24:51 51°17.211 2°52.424 -999 305 15.8 102600 44
2009-09-21 07:24:56 51°17.225 2°52.415 -999 322 15.8 102600 42
2009-09-21 07:25:01 51°17.239 2°52.406 -999 305 15.8 102600 42
2009-09-21 07:25:05 51°17.25 2°52.399 -999 323 15.8 102600 42
2009-09-21 07:25:11 51°17.267 2°52.388 0.8 309 15.8 102600 42
2009-09-21 07:25:16 51°17.281 2°52.379 0.4 318 15.8 102600 42
2009-09-21 07:25:21 51°17.296 2°52.37 1 304 15.8 102600 42
2009-09-21 07:25:25 51°17.307 2°52.363 0.6 316 15.8 102600 42
2009-09-21 07:25:31 51°17.324 2°52.352 0.7 303 15.8 102600 42
2009-09-21 07:25:36 51°17.339 2°52.343 0.8 318 15.8 102600 44
2009-09-21 07:25:41 51°17.353 2°52.334 1 303 15.8 102600 44
2009-09-21 07:25:45 51°17.364 2°52.327 0.7 319 15.8 102600 41
2009-09-21 07:25:51 51°17.381 2°52.316 0.5 306 15.8 102600 41
2009-09-21 07:25:56 51°17.396 2°52.307 0.2 319 15.8 102590 41
2009-09-21 07:26:01 51°17.41 2°52.298 0.1 305 15.8 102590 41
2009-09-21 07:26:05 51°17.421 2°52.29 0.1 320 15.9 102600 44
2009-09-21 07:26:10 51°17.436 2°52.281 1 308 15.9 102600 44
2009-09-21 07:26:16 51°17.453 2°52.269 0.4 319 15.9 102600 42
2009-09-21 07:26:21 51°17.467 2°52.26 0.1 305 15.9 102600 42
2009-09-21 07:26:25 51°17.478 2°52.252 0.1 319 15.9 102600 42
2009-09-21 07:26:30 51°17.493 2°52.243 0.6 302 15.9 102600 42
2009-09-21 07:26:36 51°17.51 2°52.232 0.9 316 15.9 102600 41
2009-09-21 07:26:41 51°17.524 2°52.222 1.5 309 15.9 102600 41
2009-09-21 07:26:45 51°17.536 2°52.215 1.1 26 15.9 102600 42
2009-09-21 07:26:51 51°17.553 2°52.204 0.9 302 15.9 102600 42
2009-09-21 07:26:56 51°17.567 2°52.195 1.2 27 15.9 102600 40
2009-09-21 07:27:01 51°17.581 2°52.185 1.2 309 15.9 102600 40
2009-09-21 07:27:05 51°17.593 2°52.178 1.1 315 15.9 102600 42
2009-09-21 07:27:11 51°17.61 2°52.167 3.3 303 15.9 102600 42
2009-09-21 07:27:16 51°17.624 2°52.158 3.2 318 15.9 102600 44
2009-09-21 07:27:21 51°17.638 2°52.149 3.4 304 15.9 102600 44
2009-09-21 07:27:25 51°17.65 2°52.142 3.1 21 15.9 102600 40
2009-09-21 07:27:31 51°17.667 2°52.131 3 303 15.9 102600 40
2009-09-21 07:27:36 51°17.681 2°52.121 2.9 23 15.9 102590 41
2009-09-21 07:27:41 51°17.695 2°52.112 2.8 304 15.9 102590 41
2009-09-21 07:27:45 51°17.706 2°52.105 2.8 27 15.9 102600 44
2009-09-21 07:27:51 51°17.723 2°52.094 2.9 310 15.9 102600 44
2009-09-21 07:27:56 51°17.737 2°52.085 3 315 15.9 102600 40
2009-09-21 07:28:01 51°17.751 2°52.076 3 305 15.9 102600 40
2009-09-21 07:28:05 51°17.763 2°52.069 2.7 317 15.9 102600 41
2009-09-21 07:28:11 51°17.78 2°52.058 3 307 15.9 102600 41
2009-09-21 07:28:16 51°17.794 2°52.049 3 317 15.9 102600 44
2009-09-21 07:28:21 51°17.808 2°52.039 2.5 302 15.9 102600 44
2009-09-21 07:28:25 51°17.82 2°52.032 2.7 319 15.9 102600 41
2009-09-21 07:28:30 51°17.834 2°52.023 3.2 308 15.9 102600 41
2009-09-21 07:28:36 51°17.851 2°52.012 3.6 318 15.9 102600 41
2009-09-21 07:28:41 51°17.865 2°52.002 3 304 15.9 102600 41
2009-09-21 07:28:45 51°17.877 2°51.995 3.2 28 15.9 102600 40
2009-09-21 07:28:50 51°17.891 2°51.986 3 308 15.9 102600 40
2009-09-21 07:28:56 51°17.908 2°51.975 3 27 15.9 102600 43
2009-09-21 07:29:01 51°17.922 2°51.965 3.3 306 15.9 102600 43
2009-09-21 07:29:05 51°17.934 2°51.958 3.3 27 15.9 102600 42
2009-09-21 07:29:11 51°17.951 2°51.947 3.2 303 15.9 102600 42
2009-09-21 07:29:16 51°17.965 2°51.937 3.3 317 15.9 102600 42
2009-09-21 07:29:21 51°17.979 2°51.928 3.2 302 15.9 102600 42
2009-09-21 07:29:25 51°17.99 2°51.921 2.9 26 15.9 102600 44
2009-09-21 07:29:31 51°18.008 2°51.909 2.8 310 15.9 102600 44
2009-09-21 07:29:36 51°18.022 2°51.9 3.1 28 15.9 102600 44
2009-09-21 07:29:41 51°18.036 2°51.89 2.9 309 15.9 102600 44
2009-09-21 07:29:45 51°18.048 2°51.883 3 316 15.9 102600 40
2009-09-21 07:29:51 51°18.065 2°51.872 2.9 306 15.9 102600 40
2009-09-21 07:29:56 51°18.079 2°51.862 2.6 316 15.9 102600 44
2009-09-21 07:30:01 51°18.093 2°51.853 2.5 309 15.9 102600 44
2009-09-21 07:30:05 51°18.105 2°51.846 2.7 318 15.9 102600 41
2009-09-21 07:30:11 51°18.122 2°51.834 2.5 308 15.9 102600 41
2009-09-21 07:30:16 51°18.137 2°51.825 2.8 316 15.9 102600 44
2009-09-21 07:30:21 51°18.151 2°51.815 3 308 15.9 102600 44
2009-09-21 07:30:25 51°18.163 2°51.808 1.6 317 15.9 102600 40
2009-09-21 07:30:31 51°18.18 2°51.796 3.5 302 15.9 102600 40
2009-09-21 07:30:36 51°18.194 2°51.786 2.8 28 15.9 102600 41
2009-09-21 07:30:41 51°18.209 2°51.777 2.9 303 15.9 102600 41
2009-09-21 07:30:45 51°18.22 2°51.769 3.1 316 15.9 102600 44
2009-09-21 07:30:50 51°18.235 2°51.76 3.2 302 15.9 102600 44
2009-09-21 07:30:56 51°18.252 2°51.749 2.8 316 15.9 102590 44
2009-09-21 07:31:01 51°18.267 2°51.739 3 306 15.9 102590 44
2009-09-21 07:31:05 51°18.279 2°51.732 2.9 315 16 102590 41
2009-09-21 07:31:10 51°18.293 2°51.722 2.9 310 16 102590 41
2009-09-21 07:31:16 51°18.31 2°51.711 3 320 15.9 102590 44
2009-09-21 07:31:21 51°18.325 2°51.701 2.9 309 15.9 102590 44
2009-09-21 07:31:25 51°18.336 2°51.693 2.6 318 16 102590 44
2009-09-21 07:31:31 51°18.354 2°51.681 3.1 304 16 102590 44
2009-09-21 07:31:36 51°18.368 2°51.672 2.8 320 16 102590 44
2009-09-21 07:31:41 51°18.382 2°51.662 2.6 309 16 102590 44
2009-09-21 07:31:45 51°18.394 2°51.654 2.8 319 16 102590 40
2009-09-21 07:31:51 51°18.411 2°51.643 2.6 308 16 102590 40
2009-09-21 07:31:56 51°18.426 2°51.633 2.7 321 16 102590 39
2009-09-21 07:32:01 51°18.44 2°51.624 2.8 303 16 102590 39
2009-09-21 07:32:05 51°18.452 2°51.616 3 319 16 102590 40
2009-09-21 07:32:11 51°18.47 2°51.604 2.9 277 16 102590 40
2009-09-21 07:32:16 51°18.484 2°51.594 3.1 24 16 102590 42
2009-09-21 07:32:21 51°18.498 2°51.584 3.1 307 16 102590 42
2009-09-21 07:32:25 51°18.509 2°51.576 3.5 317 16 102590 44
2009-09-21 07:32:31 51°18.526 2°51.564 3.5 310 16 102590 44
2009-09-21 07:32:36 51°18.541 2°51.554 3.9 317 16 102590 40
2009-09-21 07:32:41 51°18.555 2°51.544 3 307 16 102590 40
2009-09-21 07:32:45 51°18.567 2°51.536 3 22 16 102590 44
2009-09-21 07:32:51 51°18.585 2°51.525 3.2 301 16 102590 44
2009-09-21 07:32:56 51°18.599 2°51.515 3 28 16 102590 41
2009-09-21 07:33:01 51°18.614 2°51.505 2.6 307 16 102590 41
2009-09-21 07:33:05 51°18.626 2°51.498 3.4 318 16 102590 41
2009-09-21 07:33:11 51°18.643 2°51.486 3.3 301 16 102590 41
2009-09-21 07:33:16 51°18.658 2°51.476 2.9 24 16 102590 44
2009-09-21 07:33:21 51°18.672 2°51.467 3.2 301 16 102590 44
2009-09-21 07:33:25 51°18.684 2°51.459 3.1 22 16 102590 44
2009-09-21 07:33:31 51°18.701 2°51.447 3.3 308 16 102590 44
2009-09-21 07:33:35 51°18.713 2°51.439 3.2 28 16 102590 44
2009-09-21 07:33:41 51°18.73 2°51.428 2.9 301 16 102590 44
2009-09-21 07:33:45 51°18.742 2°51.42 2.9 317 16 102590 40
2009-09-21 07:33:51 51°18.759 2°51.408 3.3 304 16 102590 40
2009-09-21 07:33:56 51°18.773 2°51.398 3.3 315 16 102590 44
2009-09-21 07:34:01 51°18.787 2°51.388 3 304 16 102590 44
2009-09-21 07:34:05 51°18.798 2°51.38 3 316 16 102590 41
2009-09-21 07:34:11 51°18.815 2°51.368 3.2 279 16 102590 41
2009-09-21 07:34:16 51°18.83 2°51.359 3.4 317 16 102590 40
2009-09-21 07:34:21 51°18.844 2°51.349 3.2 305 16 102590 40
2009-09-21 07:34:25 51°18.856 2°51.341 3.9 27 16 102590 44
2009-09-21 07:34:31 51°18.873 2°51.33 3.8 309 16 102590 44
2009-09-21 07:34:36 51°18.888 2°51.32 3 315 16 102590 39
2009-09-21 07:34:41 51°18.902 2°51.31 3 304 16 102590 39
2009-09-21 07:34:45 51°18.913 2°51.302 3.6 21 16 102590 44
2009-09-21 07:34:51 51°18.93 2°51.289 3.4 304 16 102590 44
2009-09-21 07:34:56 51°18.944 2°51.279 2.9 21 16 102590 44
2009-09-21 07:35:01 51°18.959 2°51.269 2.9 302 16 102590 44
2009-09-21 07:35:05 51°18.97 2°51.261 3.2 27 16 102590 44
2009-09-21 07:35:11 51°18.987 2°51.249 2.8 306 16 102590 44
2009-09-21 07:35:16 51°19.002 2°51.238 2.9 318 16 102590 40
2009-09-21 07:35:21 51°19.016 2°51.228 3.3 308 16 102590 40
2009-09-21 07:35:25 51°19.028 2°51.22 3.4 21 16 102600 44
2009-09-21 07:35:30 51°19.042 2°51.21 3 307 16 102600 44
2009-09-21 07:35:36 51°19.06 2°51.199 3 23 16 102590 43
2009-09-21 07:35:41 51°19.075 2°51.189 2.9 303 16 102590 43
2009-09-21 07:35:45 51°19.086 2°51.181 3.3 26 16 102590 44
2009-09-21 07:35:51 51°19.104 2°51.169 3.4 307 16 102590 44
2009-09-21 07:35:56 51°19.118 2°51.159 3.2 27 16.1 102600 42
2009-09-21 07:36:01 51°19.132 2°51.149 3.3 303 16.1 102600 42
2009-09-21 07:36:05 51°19.144 2°51.141 3.4 27 16.1 102590 44
2009-09-21 07:36:11 51°19.162 2°51.129 3.8 284 16.1 102590 44
2009-09-21 07:36:16 51°19.176 2°51.118 3.5 20 16.1 102600 42
2009-09-21 07:36:21 51°19.19 2°51.108 3.2 301 16.1 102600 42
2009-09-21 07:36:25 51°19.201 2°51.099 3.8 28 16.1 102590 44
2009-09-21 07:36:31 51°19.218 2°51.087 3.3 308 16.1 102590 44
2009-09-21 07:36:36 51°19.233 2°51.077 3.4 27 16.1 102600 40
2009-09-21 07:36:41 51°19.247 2°51.067 3 307 16.1 102600 40
2009-09-21 07:36:45 51°19.258 2°51.059 3.2 25 16.1 102600 43
2009-09-21 07:36:51 51°19.276 2°51.047 3.2 301 16.1 102600 43
2009-09-21 07:36:56 51°19.29 2°51.036 3.3 318 16 102600 42
2009-09-21 07:37:01 51°19.305 2°51.026 3.3 302 16 102600 42
2009-09-21 07:37:05 51°19.316 2°51.018 3.2 20 16 102600 44
2009-09-21 07:37:11 51°19.333 2°51.006 3.1 306 16 102600 44
2009-09-21 07:37:16 51°19.348 2°50.996 3 29 16 102600 39
2009-09-21 07:37:21 51°19.363 2°50.986 3.8 305 16 102600 39
2009-09-21 07:37:25 51°19.374 2°50.978 3.3 20 16 102600 44
2009-09-21 07:37:30 51°19.389 2°50.968 3.6 303 16 102600 44
2009-09-21 07:37:36 51°19.407 2°50.956 4.2 27 16 102600 44
2009-09-21 07:37:41 51°19.421 2°50.946 4 302 16 102600 44
2009-09-21 07:37:45 51°19.433 2°50.938 3.7 22 16.1 102600 40
2009-09-21 07:37:50 51°19.447 2°50.929 3.7 304 16.1 102600 40
2009-09-21 07:37:56 51°19.465 2°50.918 3.6 28 16.1 102600 41
2009-09-21 07:38:01 51°19.479 2°50.908 3.3 308 16.1 102600 41
2009-09-21 07:38:05 51°19.491 2°50.901 3.3 28 16.1 102600 42
2009-09-21 07:38:11 51°19.509 2°50.89 3.5 280 16.1 102600 42
2009-09-21 07:38:16 51°19.524 2°50.88 3.7 21 16.1 102600 40
2009-09-21 07:38:21 51°19.538 2°50.871 3.3 302 16.1 102600 40
2009-09-21 07:38:25 51°19.55 2°50.863 3.5 29 16.1 102600 44
2009-09-21 07:38:31 51°19.568 2°50.852 3.8 308 16.1 102600 44
2009-09-21 07:38:36 51°19.582 2°50.842 4.1 27 16.1 102600 40
2009-09-21 07:38:41 51°19.597 2°50.832 4.4 308 16.1 102600 40
2009-09-21 07:38:45 51°19.609 2°50.824 3.7 21 16 102600 40
2009-09-21 07:38:51 51°19.626 2°50.811 3.6 302 16 102600 40
2009-09-21 07:38:56 51°19.641 2°50.801 3.8 24 16.1 102600 40
2009-09-21 07:39:01 51°19.655 2°50.791 3.4 307 16.1 102600 40
2009-09-21 07:39:05 51°19.666 2°50.782 3.4 27 16.1 102600 40
2009-09-21 07:39:11 51°19.683 2°50.769 4.2 307 16.1 102600 40
2009-09-21 07:39:16 51°19.697 2°50.758 4 26 16.1 102600 44
2009-09-21 07:39:21 51°19.711 2°50.747 3.6 307 16.1 102600 44
2009-09-21 07:39:25 51°19.722 2°50.739 3.1 29 16 102600 40
2009-09-21 07:39:30 51°19.736 2°50.728 3.4 301 16 102600 40
2009-09-21 07:39:36 51°19.754 2°50.715 3.1 22 16.1 102600 42
2009-09-21 07:39:41 51°19.768 2°50.704 3.7 301 16.1 102600 42
2009-09-21 07:39:45 51°19.779 2°50.696 3.2 29 16 102600 43
2009-09-21 07:39:50 51°19.793 2°50.685 3.3 302 16 102600 43
2009-09-21 07:39:56 51°19.81 2°50.672 3.3 22 16.1 102600 43
2009-09-21 07:40:01 51°19.825 2°50.661 3.4 302 16.1 102600 43
2009-09-21 07:40:05 51°19.836 2°50.652 3.9 21 16 102600 44
2009-09-21 07:40:11 51°19.853 2°50.64 3.5 284 16 102600 44
2009-09-21 07:40:16 51°19.868 2°50.629 3.9 27 16.1 102600 40
2009-09-21 07:40:21 51°19.882 2°50.618 3.8 302 16.1 102600 40
2009-09-21 07:40:25 51°19.893 2°50.61 3.4 20 16.1 102590 40
2009-09-21 07:40:31 51°19.91 2°50.597 3.2 303 16.1 102590 40
2009-09-21 07:40:36 51°19.925 2°50.586 3.5 27 16 102600 40
2009-09-21 07:40:41 51°19.939 2°50.575 3.6 303 16 102600 40
2009-09-21 07:40:45 51°19.95 2°50.566 3.6 19 16.1 102590 42
2009-09-21 07:40:51 51°19.968 2°50.553 3.4 301 16.1 102590 42
2009-09-21 07:40:56 51°19.982 2°50.543 3.6 20 16.1 102600 40
2009-09-21 07:41:01 51°19.996 2°50.532 3.8 303 16.1 102600 40
2009-09-21 07:41:05 51°20.008 2°50.523 3.8 20 16.1 102600 44
2009-09-21 07:41:11 51°20.025 2°50.51 3.9 308 16.1 102600 44
2009-09-21 07:41:16 51°20.04 2°50.499 3.5 21 16.1 102590 43
2009-09-21 07:41:21 51°20.054 2°50.489 3.9 310 16.1 102590 43
2009-09-21 07:41:25 51°20.066 2°50.48 4 22 16.1 102600 42
2009-09-21 07:41:31 51°20.083 2°50.467 3.8 307 16.1 102600 42
2009-09-21 07:41:36 51°20.098 2°50.457 3.8 27 16.1 102600 40
2009-09-21 07:41:41 51°20.112 2°50.446 3.8 303 16.1 102600 40
2009-09-21 07:41:45 51°20.124 2°50.438 3.4 21 16.1 102600 40
2009-09-21 07:41:50 51°20.139 2°50.427 3.8 301 16.1 102600 40
2009-09-21 07:41:56 51°20.156 2°50.415 3.5 24 16.2 102590 44
2009-09-21 07:42:01 51°20.171 2°50.404 3.7 307 16.2 102590 44
2009-09-21 07:42:05 51°20.183 2°50.396 3.7 29 16.2 102600 40
2009-09-21 07:42:10 51°20.198 2°50.386 3.3 279 16.2 102600 40
2009-09-21 07:42:16 51°20.215 2°50.373 3.5 27 16.1 102590 44
2009-09-21 07:42:21 51°20.23 2°50.362 3.8 304 16.1 102590 44
2009-09-21 07:42:25 51°20.241 2°50.354 4.4 22 16.2 102590 44
2009-09-21 07:42:31 51°20.259 2°50.341 4.3 304 16.2 102590 44
2009-09-21 07:42:36 51°20.273 2°50.33 4.1 27 16.1 102590 39
2009-09-21 07:42:41 51°20.287 2°50.319 4.1 301 16.1 102590 39
2009-09-21 07:42:45 51°20.299 2°50.311 4 22 16.2 102600 44
2009-09-21 07:42:51 51°20.316 2°50.298 3.5 303 16.2 102600 44
2009-09-21 07:42:56 51°20.331 2°50.288 3.6 23 16.2 102590 41
2009-09-21 07:43:01 51°20.346 2°50.278 4.4 303 16.2 102590 41
2009-09-21 07:43:05 51°20.358 2°50.27 3.9 21 16.2 102590 44
2009-09-21 07:43:11 51°20.375 2°50.257 4.3 309 16.2 102590 44
2009-09-21 07:43:16 51°20.39 2°50.247 4.2 29 16.2 102600 41
2009-09-21 07:43:21 51°20.404 2°50.236 3.7 309 16.2 102600 41
2009-09-21 07:43:25 51°20.416 2°50.228 3.5 21 16.2 102600 44
2009-09-21 07:43:31 51°20.433 2°50.216 3.8 303 16.2 102600 44
2009-09-21 07:43:36 51°20.448 2°50.206 3.5 27 16.2 102590 44
2009-09-21 07:43:41 51°20.462 2°50.195 3.7 303 16.2 102590 44
2009-09-21 07:43:45 51°20.474 2°50.187 3.6 23 16.2 102590 42
2009-09-21 07:43:51 51°20.491 2°50.174 3.7 307 16.2 102590 42
2009-09-21 07:43:56 51°20.505 2°50.163 3.6 22 16.2 102590 40
2009-09-21 07:44:01 51°20.519 2°50.153 3.7 307 16.2 102590 40
2009-09-21 07:44:05 51°20.53 2°50.144 3.4 22 16.1 102590 44
2009-09-21 07:44:10 51°20.544 2°50.133 4 284 16.1 102590 44
2009-09-21 07:44:16 51°20.561 2°50.12 3.8 20 16.1 102590 40
2009-09-21 07:44:21 51°20.576 2°50.11 3.4 307 16.1 102590 40
2009-09-21 07:44:25 51°20.587 2°50.102 3.5 26 16.1 102590 41
2009-09-21 07:44:30 51°20.601 2°50.091 3.6 309 16.1 102590 41
2009-09-21 07:44:36 51°20.618 2°50.079 3.5 23 16.1 102590 41
2009-09-21 07:44:41 51°20.632 2°50.07 3.2 303 16.1 102590 41
2009-09-21 07:44:45 51°20.644 2°50.061 3.7 27 16.1 102590 41
2009-09-21 07:44:51 51°20.661 2°50.05 2.9 306 16.1 102590 41
2009-09-21 07:44:56 51°20.675 2°50.04 3.3 25 16.1 102590 44
2009-09-21 07:45:01 51°20.69 2°50.03 3.7 309 16.1 102590 44
2009-09-21 07:45:05 51°20.701 2°50.022 3.2 22 16.2 102590 40
2009-09-21 07:45:11 51°20.718 2°50.01 3.1 278 16.2 102590 40
2009-09-21 07:45:16 51°20.732 2°50 2.7 26 16.2 102590 43
2009-09-21 07:45:21 51°20.747 2°49.991 2.6 308 16.2 102590 43
2009-09-21 07:45:25 51°20.758 2°49.983 2.8 23 16.2 102590 43
2009-09-21 07:45:31 51°20.775 2°49.971 2.8 301 16.2 102590 43
2009-09-21 07:45:36 51°20.79 2°49.96 3.5 22 16.2 102590 43
2009-09-21 07:45:41 51°20.804 2°49.951 3.6 307 16.2 102590 43
2009-09-21 07:45:45 51°20.816 2°49.943 3.8 23 16.2 102590 42
2009-09-21 07:45:51 51°20.833 2°49.931 3.6 309 16.2 102590 42
2009-09-21 07:45:56 51°20.847 2°49.92 3.7 29 16.1 102590 44
2009-09-21 07:46:01 51°20.861 2°49.909 3.9 307 16.1 102590 44
2009-09-21 07:46:05 51°20.872 2°49.901 3.9 27 16.2 102590 44
2009-09-21 07:46:11 51°20.889 2°49.887 3.5 285 16.2 102590 44
2009-09-21 07:46:16 51°20.904 2°49.877 3.7 22 16.2 102590 44
2009-09-21 07:46:21 51°20.918 2°49.866 3.5 302 16.2 102590 44
2009-09-21 07:46:25 51°20.929 2°49.857 3.6 29 16.2 102590 44
2009-09-21 07:46:30 51°20.943 2°49.847 3.4 307 16.2 102590 44
2009-09-21 07:46:36 51°20.96 2°49.835 3.4 27 16.2 102590 42
2009-09-21 07:46:41 51°20.975 2°49.824 3.4 303 16.2 102590 42
2009-09-21 07:46:45 51°20.986 2°49.816 3 27 16.2 102590 44
2009-09-21 07:46:51 51°21.004 2°49.804 3 307 16.2 102590 44
2009-09-21 07:46:56 51°21.019 2°49.795 2.8 27 16.2 102590 41
2009-09-21 07:47:01 51°21.033 2°49.784 2.9 309 16.2 102590 41
2009-09-21 07:47:05 51°21.045 2°49.776 3.3 29 16.2 102590 44
2009-09-21 07:47:11 51°21.063 2°49.764 3.1 307 16.2 102590 44
2009-09-21 07:47:16 51°21.077 2°49.755 2.9 26 16.2 102590 43
2009-09-21 07:47:21 51°21.091 2°49.744 3.2 302 16.2 102590 43
2009-09-21 07:47:25 51°21.103 2°49.736 3.9 25 16.2 102590 40
2009-09-21 07:47:31 51°21.12 2°49.723 4.2 301 16.2 102590 40
2009-09-21 07:47:36 51°21.135 2°49.713 3.3 25 16.2 102600 43
2009-09-21 07:47:41 51°21.149 2°49.702 3.3 307 16.2 102600 43
2009-09-21 07:47:45 51°21.161 2°49.694 3.3 20 16.2 102590 40
2009-09-21 07:47:51 51°21.178 2°49.681 3.2 303 16.2 102590 40
2009-09-21 07:47:56 51°21.192 2°49.671 3.4 28 16.2 102590 42
2009-09-21 07:48:01 51°21.207 2°49.66 3.7 308 16.2 102590 42
2009-09-21 07:48:05 51°21.219 2°49.652 3.6 21 16.2 102590 40
2009-09-21 07:48:11 51°21.236 2°49.639 3.6 278 16.2 102590 40
2009-09-21 07:48:16 51°21.251 2°49.629 3.7 21 16.1 102590 42
2009-09-21 07:48:21 51°21.265 2°49.619 3.8 301 16.1 102590 42
2009-09-21 07:48:25 51°21.277 2°49.611 3.5 26 16.1 102590 44
2009-09-21 07:48:31 51°21.294 2°49.598 3.2 309 16.1 102590 44
2009-09-21 07:48:36 51°21.309 2°49.587 3.3 28 16.1 102590 40
2009-09-21 07:48:41 51°21.324 2°49.577 4 308 16.1 102590 40
2009-09-21 07:48:45 51°21.335 2°49.568 4.4 27 16.1 102590 40
2009-09-21 07:48:50 51°21.35 2°49.558 3.6 303 16.1 102590 40
2009-09-21 07:48:56 51°21.368 2°49.545 4 27 16.2 102590 40
2009-09-21 07:49:01 51°21.383 2°49.534 3.5 308 16.2 102590 40
2009-09-21 07:49:05 51°21.394 2°49.525 3.4 19 16.2 102590 44
2009-09-21 07:49:11 51°21.412 2°49.513 3.8 304 16.2 102590 44
2009-09-21 07:49:16 51°21.427 2°49.502 3.6 22 16.2 102580 44
2009-09-21 07:49:21 51°21.441 2°49.491 3.5 301 16.2 102580 44
2009-09-21 07:49:25 51°21.453 2°49.482 4.1 20 16.2 102590 44
2009-09-21 07:49:31 51°21.47 2°49.469 3.3 306 16.2 102590 44
2009-09-21 07:49:36 51°21.485 2°49.457 3.4 27 16.2 102590 44
2009-09-21 07:49:41 51°21.499 2°49.446 3.6 310 16.2 102590 44
2009-09-21 07:49:45 51°21.511 2°49.436 3.1 28 16.2 102580 41
2009-09-21 07:49:51 51°21.528 2°49.422 3.3 301 16.2 102580 41
2009-09-21 07:49:56 51°21.542 2°49.41 4 20 16.2 102580 40
2009-09-21 07:50:01 51°21.557 2°49.399 3.8 307 16.2 102580 40
2009-09-21 07:50:05 51°21.568 2°49.39 3.5 24 16.2 102590 44
2009-09-21 07:50:11 51°21.585 2°49.376 3.2 278 16.2 102590 44
2009-09-21 07:50:16 51°21.6 2°49.365 3.4 20 16.2 102590 40
2009-09-21 07:50:21 51°21.615 2°49.353 4 309 16.2 102590 40
2009-09-21 07:50:26 51°21.63 2°49.343 4.3 24 16.2 102590 42
2009-09-21 07:50:31 51°21.644 2°49.332 3.8 302 16.2 102590 42
2009-09-21 07:50:36 51°21.659 2°49.32 4.3 25 16.2 102590 42
2009-09-21 07:50:41 51°21.674 2°49.309 4.1 307 16.2 102590 42
2009-09-21 07:50:45 51°21.685 2°49.301 3.9 23 16.2 102590 41
2009-09-21 07:50:51 51°21.703 2°49.287 3.7 309 16.2 102590 41
2009-09-21 07:50:56 51°21.718 2°49.276 3.7 23 16.2 102580 43
2009-09-21 07:51:01 51°21.732 2°49.265 4 309 16.2 102580 43
2009-09-21 07:51:05 51°21.744 2°49.256 3.8 21 16.2 102590 44
2009-09-21 07:51:11 51°21.762 2°49.243 3.7 305 16.2 102590 44
2009-09-21 07:51:16 51°21.777 2°49.231 3.6 25 16.2 102580 44
2009-09-21 07:51:21 51°21.791 2°49.221 3.1 308 16.2 102580 44
2009-09-21 07:51:25 51°21.803 2°49.212 3.1 27 16.2 102580 40
2009-09-21 07:51:31 51°21.821 2°49.199 3.2 307 16.2 102580 40
2009-09-21 07:51:36 51°21.836 2°49.188 3.3 27 16.2 102580 43
2009-09-21 07:51:41 51°21.851 2°49.178 3.6 303 16.2 102580 43
2009-09-21 07:51:45 51°21.862 2°49.169 3.3 28 16.2 102580 44
2009-09-21 07:51:51 51°21.88 2°49.156 4 307 16.2 102580 44
2009-09-21 07:51:56 51°21.895 2°49.145 3.6 21 16.2 102590 40
2009-09-21 07:52:01 51°21.91 2°49.134 3.4 305 16.2 102590 40
2009-09-21 07:52:05 51°21.921 2°49.125 3.5 22 16.2 102590 44
2009-09-21 07:52:11 51°21.939 2°49.112 3.1 302 16.2 102590 44
2009-09-21 07:52:16 51°21.954 2°49.101 3.6 22 16.2 102590 43
2009-09-21 07:52:21 51°21.969 2°49.091 2.8 302 16.2 102590 43
2009-09-21 07:52:25 51°21.981 2°49.082 2.8 28 16.2 102590 43
2009-09-21 07:52:31 51°21.999 2°49.069 3.1 308 16.2 102590 43
2009-09-21 07:52:36 51°22.014 2°49.058 3.3 26 16.2 102580 41
2009-09-21 07:52:41 51°22.028 2°49.047 3.5 306 16.2 102580 41
2009-09-21 07:52:46 51°22.043 2°49.036 3.4 27 16.2 102580 44
2009-09-21 07:52:51 51°22.058 2°49.025 3.6 307 16.2 102580 44
2009-09-21 07:52:56 51°22.073 2°49.014 3.5 26 16.2 102580 43
2009-09-21 07:53:01 51°22.088 2°49.004 4.1 303 16.2 102580 43
2009-09-21 07:53:05 51°22.1 2°48.996 4.2 22 16.2 102590 44
2009-09-21 07:53:11 51°22.118 2°48.983 3.4 308 16.2 102590 44
2009-09-21 07:53:16 51°22.133 2°48.972 3.3 27 16.2 102580 39
2009-09-21 07:53:21 51°22.148 2°48.961 3.6 309 16.2 102580 39
2009-09-21 07:53:25 51°22.16 2°48.953 3 21 16.2 102590 44
2009-09-21 07:53:31 51°22.178 2°48.94 3.3 302 16.2 102590 44
2009-09-21 07:53:36 51°22.193 2°48.929 2.9 29 16.2 102580 44
2009-09-21 07:53:41 51°22.208 2°48.919 3.3 306 16.2 102580 44
2009-09-21 07:53:45 51°22.22 2°48.91 3.1 23 16.2 102580 40
2009-09-21 07:53:51 51°22.238 2°48.898 3 302 16.2 102580 40
2009-09-21 07:53:56 51°22.253 2°48.887 3.1 21 16.2 102580 40
2009-09-21 07:54:01 51°22.268 2°48.876 2.7 305 16.2 102580 40
2009-09-21 07:54:05 51°22.28 2°48.868 2.9 28 16.2 102580 44
2009-09-21 07:54:11 51°22.298 2°48.855 3 302 16.2 102580 44
2009-09-21 07:54:16 51°22.313 2°48.845 3.2 24 16.2 102580 44
2009-09-21 07:54:21 51°22.327 2°48.835 2.9 308 16.2 102580 44
2009-09-21 07:54:25 51°22.339 2°48.826 3.7 21 16.2 102580 40
2009-09-21 07:54:31 51°22.357 2°48.813 3.9 308 16.2 102580 40
2009-09-21 07:54:36 51°22.371 2°48.803 3.6 23 16.2 102580 43
2009-09-21 07:54:41 51°22.386 2°48.792 3.9 301 16.2 102580 43
2009-09-21 07:54:45 51°22.398 2°48.784 3.9 26 16.2 102580 44
2009-09-21 07:54:51 51°22.415 2°48.771 3.4 302 16.2 102580 44
2009-09-21 07:54:56 51°22.43 2°48.762 3.7 28 16.3 102580 44
2009-09-21 07:55:01 51°22.445 2°48.751 3.6 308 16.3 102580 44
2009-09-21 07:55:06 51°22.46 2°48.741 3.8 25 16.3 102580 41
2009-09-21 07:55:11 51°22.476 2°48.731 3.9 302 16.3 102580 41
2009-09-21 07:55:16 51°22.491 2°48.721 4 22 16.3 102580 42
2009-09-21 07:55:21 51°22.506 2°48.711 4 307 16.3 102580 42
2009-09-21 07:55:25 51°22.518 2°48.704 3.6 26 16.3 102580 42
2009-09-21 07:55:31 51°22.535 2°48.691 3.4 308 16.3 102580 42
2009-09-21 07:55:36 51°22.55 2°48.681 3.6 29 16.3 102580 41
2009-09-21 07:55:41 51°22.564 2°48.671 3 300 16.3 102580 41
2009-09-21 07:55:45 51°22.575 2°48.663 3.3 22 16.3 102580 44
2009-09-21 07:55:50 51°22.59 2°48.652 3.4 302 16.3 102580 44
2009-09-21 07:55:56 51°22.607 2°48.641 3.5 28 16.3 102580 39
2009-09-21 07:56:01 51°22.622 2°48.631 3.1 302 16.3 102580 39
2009-09-21 07:56:05 51°22.633 2°48.623 4.1 22 16.3 102580 41
2009-09-21 07:56:11 51°22.65 2°48.611 3.6 303 16.3 102580 41
2009-09-21 07:56:16 51°22.664 2°48.601 3.6 25 16.3 102580 43
2009-09-21 07:56:21 51°22.679 2°48.591 4 310 16.3 102580 43
2009-09-21 07:56:25 51°22.69 2°48.583 3.6 20 16.3 102580 40
2009-09-21 07:56:31 51°22.707 2°48.571 3.7 308 16.3 102580 40
2009-09-21 07:56:36 51°22.722 2°48.562 4.3 20 16.3 102580 44
2009-09-21 07:56:41 51°22.736 2°48.552 4.3 307 16.3 102580 44
2009-09-21 07:56:45 51°22.748 2°48.544 2.6 21 16.3 102580 44
2009-09-21 07:56:51 51°22.765 2°48.532 3.6 307 16.3 102580 44
2009-09-21 07:56:56 51°22.779 2°48.523 3.3 20 16.3 102570 42
2009-09-21 07:57:01 51°22.794 2°48.513 3.4 308 16.3 102570 42
2009-09-21 07:57:05 51°22.806 2°48.506 3.1 28 16.3 102580 42
2009-09-21 07:57:11 51°22.823 2°48.494 3.5 304 16.3 102580 42
2009-09-21 07:57:16 51°22.838 2°48.485 3.6 24 16.3 102570 40
2009-09-21 07:57:21 51°22.852 2°48.475 3.6 303 16.3 102570 40
2009-09-21 07:57:25 51°22.863 2°48.467 3.1 25 16.3 102580 40
2009-09-21 07:57:31 51°22.881 2°48.454 3.6 310 16.3 102580 40
2009-09-21 07:57:36 51°22.895 2°48.444 3.7 28 16.3 102570 40
2009-09-21 07:57:41 51°22.909 2°48.434 3.5 302 16.3 102570 40
2009-09-21 07:57:45 51°22.921 2°48.426 3.3 23 16.3 102580 44
2009-09-21 07:57:51 51°22.938 2°48.415 3.4 303 16.3 102580 44
2009-09-21 07:57:56 51°22.953 2°48.405 3.1 27 16.3 102570 44
2009-09-21 07:58:01 51°22.967 2°48.396 1.2 302 16.3 102570 44
2009-09-21 07:58:05 51°22.979 2°48.389 1.3 28 16.3 102580 40
2009-09-21 07:58:10 51°22.994 2°48.379 1.3 285 16.3 102580 40
2009-09-21 07:58:16 51°23.011 2°48.368 0.8 27 16.3 102580 44
2009-09-21 07:58:21 51°23.026 2°48.359 0.2 308 16.3 102580 44
2009-09-21 07:58:25 51°23.037 2°48.351 0.1 23 16.3 102580 42
2009-09-21 07:58:31 51°23.055 2°48.34 2.3 306 16.3 102580 42
2009-09-21 07:58:36 51°23.069 2°48.33 3.7 30 16.3 102580 43
2009-09-21 07:58:41 51°23.084 2°48.321 3.4 309 16.3 102580 43
2009-09-21 07:58:45 51°23.096 2°48.313 4 25 16.3 102580 41
2009-09-21 07:58:51 51°23.113 2°48.301 4 302 16.3 102580 41
2009-09-21 07:58:56 51°23.127 2°48.291 3.8 24 16.3 102580 42
2009-09-21 07:59:01 51°23.142 2°48.281 3.3 308 16.3 102580 42
2009-09-21 07:59:05 51°23.154 2°48.274 3.4 27 16.3 102580 44
2009-09-21 07:59:11 51°23.171 2°48.261 3 304 16.3 102580 44
2009-09-21 07:59:16 51°23.185 2°48.251 3.6 27 16.3 102570 44
2009-09-21 07:59:21 51°23.2 2°48.24 4.1 304 16.3 102570 44
2009-09-21 07:59:25 51°23.211 2°48.232 4 25 16.3 102580 43
2009-09-21 07:59:31 51°23.228 2°48.22 3.4 303 16.3 102580 43
2009-09-21 07:59:36 51°23.243 2°48.21 3.5 29 16.3 102580 41
2009-09-21 07:59:41 51°23.257 2°48.199 3.5 302 16.3 102580 41
2009-09-21 07:59:45 51°23.268 2°48.19 3.3 26 16.3 102580 41
2009-09-21 07:59:51 51°23.285 2°48.177 3.1 308 16.3 102580 41
2009-09-21 07:59:56 51°23.3 2°48.166 3.2 24 16.3 102580 41
2009-09-21 08:00:01 51°23.314 2°48.156 3.3 304 16.3 102580 41
2009-09-21 08:00:05 51°23.325 2°48.147 3.1 20 16.3 102580 44
2009-09-21 08:00:11 51°23.342 2°48.134 1.7 282 16.3 102580 44
2009-09-21 08:00:16 51°23.356 2°48.123 1.8 26 16.3 102580 40
2009-09-21 08:00:21 51°23.371 2°48.112 1.6 307 16.3 102580 40
2009-09-21 08:00:25 51°23.382 2°48.103 3 243 16.3 102580 45
2009-09-21 08:00:30 51°23.396 2°48.093 3.9 301 16.3 102580 45
2009-09-21 08:00:36 51°23.414 2°48.08 3.9 27 16.3 102580 42
2009-09-21 08:00:41 51°23.428 2°48.07 4.4 302 16.3 102580 42
2009-09-21 08:00:45 51°23.439 2°48.061 4.2 27 16.3 102570 44
2009-09-21 08:00:51 51°23.457 2°48.049 4.2 304 16.3 102570 44
2009-09-21 08:00:56 51°23.471 2°48.038 4 24 16.3 102570 41
2009-09-21 08:01:01 51°23.485 2°48.027 3.4 304 16.3 102570 41
2009-09-21 08:01:05 51°23.497 2°48.018 3.1 27 16.3 102570 44
2009-09-21 08:01:11 51°23.514 2°48.005 3.4 303 16.3 102570 44
2009-09-21 08:01:16 51°23.529 2°47.994 3.1 26 16.3 102570 43
2009-09-21 08:01:21 51°23.543 2°47.984 3.6 301 16.3 102570 43
2009-09-21 08:01:25 51°23.555 2°47.976 2.6 28 16.3 102570 43
2009-09-21 08:01:31 51°23.572 2°47.963 3.8 309 16.3 102570 43
2009-09-21 08:01:36 51°23.587 2°47.952 3.6 22 16.3 102580 44
2009-09-21 08:01:41 51°23.601 2°47.942 3 309 16.3 102580 44
2009-09-21 08:01:45 51°23.613 2°47.933 3.2 20 16.3 102580 40
2009-09-21 08:01:51 51°23.63 2°47.921 3.6 301 16.3 102580 40
2009-09-21 08:01:56 51°23.645 2°47.911 3.9 24 16.3 102580 44
2009-09-21 08:02:01 51°23.659 2°47.9 4.3 303 16.3 102580 44
2009-09-21 08:02:05 51°23.671 2°47.892 4.5 26 16.3 102570 40
2009-09-21 08:02:11 51°23.688 2°47.879 4.6 280 16.3 102570 40
2009-09-21 08:02:16 51°23.703 2°47.868 4.2 242 16.3 102580 44
2009-09-21 08:02:21 51°23.717 2°47.856 4.3 309 16.3 102580 44
2009-09-21 08:02:25 51°23.728 2°47.848 4.5 26 16.3 102580 41
2009-09-21 08:02:31 51°23.746 2°47.835 3.9 306 16.3 102580 41
2009-09-21 08:02:36 51°23.76 2°47.824 3.5 242 16.3 102570 42
2009-09-21 08:02:41 51°23.775 2°47.814 3.2 310 16.3 102570 42
2009-09-21 08:02:45 51°23.786 2°47.805 3.7 22 16.3 102570 44
2009-09-21 08:02:50 51°23.801 2°47.795 4.2 309 16.3 102570 44
2009-09-21 08:02:56 51°23.818 2°47.782 4.6 27 16.4 102580 44
2009-09-21 08:03:01 51°23.832 2°47.771 3.8 303 16.4 102580 44
2009-09-21 08:03:05 51°23.844 2°47.763 3.7 21 16.3 102570 43
2009-09-21 08:03:11 51°23.861 2°47.75 3.7 301 16.3 102570 43
2009-09-21 08:03:16 51°23.876 2°47.74 4.5 28 16.4 102580 44
2009-09-21 08:03:21 51°23.89 2°47.73 4.3 302 16.4 102580 44
2009-09-21 08:03:25 51°23.902 2°47.721 4.1 23 16.4 102580 41
2009-09-21 08:03:31 51°23.919 2°47.708 3.6 309 16.4 102580 41
2009-09-21 08:03:36 51°23.934 2°47.698 3.9 22 16.4 102570 41
2009-09-21 08:03:41 51°23.948 2°47.687 3.8 310 16.4 102570 41
2009-09-21 08:03:45 51°23.959 2°47.679 4.3 26 16.4 102570 44
2009-09-21 08:03:51 51°23.977 2°47.667 3.5 303 16.4 102570 44
2009-09-21 08:03:56 51°23.991 2°47.656 4 21 16.4 102570 42
2009-09-21 08:04:01 51°24.006 2°47.645 3.8 308 16.4 102570 42
2009-09-21 08:04:05 51°24.018 2°47.637 3.9 26 16.4 102570 42
2009-09-21 08:04:11 51°24.035 2°47.624 3.2 285 16.4 102570 42
2009-09-21 08:04:16 51°24.049 2°47.613 3.7 244 16.3 102570 43
2009-09-21 08:04:21 51°24.064 2°47.603 3 302 16.3 102570 43
2009-09-21 08:04:25 51°24.075 2°47.595 3.4 20 16.4 102580 44
2009-09-21 08:04:31 51°24.093 2°47.582 3 310 16.4 102580 44
2009-09-21 08:04:36 51°24.107 2°47.571 3 22 16.3 102570 44
2009-09-21 08:04:41 51°24.122 2°47.561 3.8 306 16.3 102570 44
2009-09-21 08:04:45 51°24.133 2°47.552 3.9 28 16.4 102580 40
2009-09-21 08:04:50 51°24.148 2°47.542 3.5 309 16.4 102580 40
2009-09-21 08:04:56 51°24.165 2°47.529 3.6 243 16.3 102570 44
2009-09-21 08:05:01 51°24.179 2°47.518 3.4 304 16.3 102570 44
2009-09-21 08:05:05 51°24.191 2°47.51 3.4 21 16.4 102570 44
2009-09-21 08:05:11 51°24.208 2°47.497 4.2 310 16.4 102570 44
2009-09-21 08:05:16 51°24.223 2°47.486 4.4 21 16.4 102570 42
2009-09-21 08:05:21 51°24.237 2°47.475 4.1 309 16.4 102570 42
2009-09-21 08:05:25 51°24.248 2°47.466 4.2 27 16.3 102570 44
2009-09-21 08:05:31 51°24.266 2°47.453 3.8 303 16.3 102570 44
2009-09-21 08:05:36 51°24.28 2°47.442 3.2 25 16.4 102570 42
2009-09-21 08:05:41 51°24.294 2°47.432 3.5 308 16.4 102570 42
2009-09-21 08:05:45 51°24.305 2°47.423 2.6 21 16.4 102570 44
2009-09-21 08:05:51 51°24.323 2°47.411 3.9 301 16.4 102570 44
2009-09-21 08:05:56 51°24.337 2°47.4 3.6 20 16.4 102570 44
2009-09-21 08:06:01 51°24.351 2°47.39 4 304 16.4 102570 44
2009-09-21 08:06:05 51°24.363 2°47.381 4 26 16.4 102570 41
2009-09-21 08:06:11 51°24.38 2°47.369 4.5 280 16.4 102570 41
2009-09-21 08:06:16 51°24.395 2°47.358 4.9 22 16.4 102570 44
2009-09-21 08:06:21 51°24.409 2°47.348 4.4 304 16.4 102570 44
2009-09-21 08:06:25 51°24.42 2°47.339 4.4 21 16.4 102570 44
2009-09-21 08:06:31 51°24.438 2°47.326 4.1 304 16.4 102570 44
2009-09-21 08:06:36 51°24.452 2°47.315 4.3 241 16.4 102570 42
2009-09-21 08:06:41 51°24.466 2°47.304 4.1 303 16.4 102570 42
2009-09-21 08:06:45 51°24.478 2°47.296 4.2 28 16.4 102570 42
2009-09-21 08:06:51 51°24.495 2°47.283 3.9 307 16.4 102570 42
2009-09-21 08:06:56 51°24.51 2°47.272 3.8 28 16.4 102570 40
2009-09-21 08:07:01 51°24.524 2°47.261 4.4 302 16.4 102570 40
2009-09-21 08:07:05 51°24.536 2°47.253 4.1 21 16.3 102570 44
2009-09-21 08:07:10 51°24.55 2°47.242 4 305 16.3 102570 44
2009-09-21 08:07:16 51°24.567 2°47.23 3.8 26 16.3 102580 40
2009-09-21 08:07:21 51°24.581 2°47.219 3.9 306 16.3 102580 40
2009-09-21 08:07:25 51°24.593 2°47.21 3.9 20 16.3 102580 43
2009-09-21 08:07:31 51°24.61 2°47.197 4 302 16.3 102580 43
2009-09-21 08:07:36 51°24.624 2°47.186 4.3 27 16.3 102570 41
2009-09-21 08:07:41 51°24.639 2°47.175 4.3 301 16.3 102570 41
2009-09-21 08:07:45 51°24.65 2°47.167 4.6 23 16.4 102580 43
2009-09-21 08:07:51 51°24.667 2°47.153 4.8 309 16.4 102580 43
2009-09-21 08:07:56 51°24.681 2°47.142 5.4 21 16.3 102580 41
2009-09-21 08:08:01 51°24.696 2°47.132 4.7 309 16.3 102580 41
2009-09-21 08:08:05 51°24.707 2°47.123 4.5 22 16.3 102580 40
2009-09-21 08:08:11 51°24.724 2°47.109 4.8 304 16.3 102580 40
2009-09-21 08:08:16 51°24.739 2°47.099 4.2 27 16.4 102580 42
2009-09-21 08:08:21 51°24.753 2°47.088 3.9 301 16.4 102580 42
2009-09-21 08:08:25 51°24.765 2°47.079 4 23 16.4 102580 44
2009-09-21 08:08:31 51°24.782 2°47.066 4.9 303 16.4 102580 44
2009-09-21 08:08:36 51°24.796 2°47.055 4.3 24 16.4 102580 41
2009-09-21 08:08:41 51°24.81 2°47.043 4.7 309 16.4 102580 41
2009-09-21 08:08:45 51°24.821 2°47.034 3.9 21 16.4 102570 44
2009-09-21 08:08:51 51°24.838 2°47.022 4.2 306 16.4 102570 44
2009-09-21 08:08:56 51°24.852 2°47.011 4.5 23 16.4 102580 41
2009-09-21 08:09:01 51°24.867 2°47 5.1 303 16.4 102580 41
2009-09-21 08:09:05 51°24.878 2°46.991 4.8 21 16.4 102580 40
2009-09-21 08:09:11 51°24.894 2°46.977 4.4 302 16.4 102580 40
2009-09-21 08:09:16 51°24.909 2°46.966 4.5 27 16.4 102580 43
2009-09-21 08:09:21 51°24.923 2°46.955 4.7 307 16.4 102580 43
2009-09-21 08:09:25 51°24.934 2°46.947 5.4 26 16.4 102580 40
2009-09-21 08:09:30 51°24.948 2°46.936 4.8 308 16.4 102580 40
2009-09-21 08:09:36 51°24.965 2°46.923 4.8 22 16.4 102580 44
2009-09-21 08:09:41 51°24.979 2°46.913 4 307 16.4 102580 44
2009-09-21 08:09:45 51°24.99 2°46.905 4.5 21 16.4 102580 41
2009-09-21 08:09:51 51°25.007 2°46.892 4.2 303 16.4 102580 41
2009-09-21 08:09:56 51°25.021 2°46.881 3.8 20 16.4 102580 40
2009-09-21 08:10:01 51°25.035 2°46.871 4.3 302 16.4 102580 40
2009-09-21 08:10:05 51°25.047 2°46.862 4.2 24 16.4 102580 40
2009-09-21 08:10:11 51°25.064 2°46.85 5 281 16.4 102580 40
2009-09-21 08:10:16 51°25.078 2°46.839 4.6 25 16.4 102580 40
2009-09-21 08:10:21 51°25.092 2°46.828 4 303 16.4 102580 40
2009-09-21 08:10:25 51°25.103 2°46.82 4.6 26 16.4 102580 42
2009-09-21 08:10:31 51°25.12 2°46.807 4.6 302 16.4 102580 42
2009-09-21 08:10:36 51°25.134 2°46.797 4.4 26 16.4 102580 42
2009-09-21 08:10:41 51°25.148 2°46.786 3.8 303 16.4 102580 42
2009-09-21 08:10:45 51°25.159 2°46.778 3.7 25 16.4 102580 40
2009-09-21 08:10:51 51°25.176 2°46.764 4.6 303 16.4 102580 40
2009-09-21 08:10:56 51°25.19 2°46.754 4.2 21 16.4 102580 44
2009-09-21 08:11:01 51°25.204 2°46.743 5.1 306 16.4 102580 44
2009-09-21 08:11:05 51°25.216 2°46.735 5 243 16.4 102580 44
2009-09-21 08:11:11 51°25.233 2°46.722 4.2 309 16.4 102580 44
2009-09-21 08:11:16 51°25.247 2°46.712 4 27 16.4 102580 44
2009-09-21 08:11:21 51°25.261 2°46.701 4.2 307 16.4 102580 44
2009-09-21 08:11:25 51°25.272 2°46.693 4.6 22 16.4 102580 42
2009-09-21 08:11:31 51°25.289 2°46.68 4.2 306 16.4 102580 42
2009-09-21 08:11:36 51°25.303 2°46.67 4.5 27 16.4 102580 44
2009-09-21 08:11:41 51°25.317 2°46.659 4.4 303 16.4 102580 44
2009-09-21 08:11:45 51°25.329 2°46.651 4.8 22 16.4 102590 44
2009-09-21 08:11:51 51°25.346 2°46.639 5.3 309 16.4 102590 44
2009-09-21 08:11:56 51°25.36 2°46.628 5 245 16.4 102590 43
2009-09-21 08:12:01 51°25.374 2°46.617 5.1 301 16.4 102590 43
2009-09-21 08:12:05 51°25.385 2°46.608 4.8 244 16.4 102580 44
2009-09-21 08:12:11 51°25.402 2°46.596 4.6 307 16.4 102580 44
2009-09-21 08:12:16 51°25.416 2°46.585 5 246 16.4 102580 43
2009-09-21 08:12:21 51°25.431 2°46.575 4.2 308 16.4 102580 43
2009-09-21 08:12:25 51°25.442 2°46.566 5.1 24 16.4 102580 43
2009-09-21 08:12:31 51°25.459 2°46.553 4.8 308 16.4 102580 43
2009-09-21 08:12:36 51°25.473 2°46.543 4.1 247 16.4 102580 44
2009-09-21 08:12:41 51°25.487 2°46.532 4.6 307 16.4 102580 44
2009-09-21 08:12:45 51°25.498 2°46.523 4.6 24 16.4 102580 43
2009-09-21 08:12:51 51°25.515 2°46.51 4.7 309 16.4 102580 43
2009-09-21 08:12:56 51°25.528 2°46.499 4.1 29 16.4 102580 43
2009-09-21 08:13:01 51°25.542 2°46.488 4.9 309 16.4 102580 43
2009-09-21 08:13:05 51°25.554 2°46.48 4.4 19 16.4 102590 41
2009-09-21 08:13:11 51°25.57 2°46.467 4.2 307 16.4 102590 41
2009-09-21 08:13:16 51°25.584 2°46.456 4.5 23 16.4 102590 44
2009-09-21 08:13:21 51°25.598 2°46.444 4.5 304 16.4 102590 44